Dr. Bill's Marine Weather

Coastal Marine Forecast

       Alabama   Florida   Louisiana   Mississippi

Printer Friendly AL  FL  LA  MS

Data Buoys:   Western Gulf of Mexico    Eastern Gulf of Mexico
**********************************************************************
  Alabama
100 AM CDT SAT NOV 01 2014

ALZ051>064-010700-
SOUTHWEST ALABAMA
  
CITY           SKY/WX    TMP DP  RH WIND       PRES   REMARKS
MOBILE         CLEAR     51  32  48 N18G29    30.17R                  
6HR MIN TEMP:  48; 6HR MAX TEMP:  64;                                

BROOKLEY FIELD CLEAR     53  35  50 NW23G38   30.17R                  
6HR MIN TEMP:  53; 6HR MAX TEMP:  67; 6HR PCP: TRACE;                

EVERGREEN      PTCLDY    50  26  39 N14G29    30.15R                  
6HR MIN TEMP:  50; 6HR MAX TEMP:  64;                                

**********************************************************************
  Florida
200 AM EDT SAT NOV 01 2014

FLZ001>010-012>015-112-114-115-010700-
PANHANDLE FLORIDA
  
CITY           SKY/WX    TMP DP  RH WIND       PRES   REMARKS
PENSACOLA      CLEAR     54  39  57 NW20G35   30.10R                  
PENSACOLA NAS  CLEAR     54  38  54 NW16G26   30.10R                  
MILTON NAS     PTCLDY    53  38  56 N12G18    30.10R                  
CRESTVIEW      CLEAR     53  37  54 NW16G30   30.10R                  
DUKE FIELD     FAIR      54  38  54 N22G29    30.08R                  
VALPARAISO     PTCLDY    56  42  60 N21       30.06R                  
MARY ESTHER    PTCLDY    56  38  51 N23G32    30.05R                  
TRI COUNTY     FAIR      53  40  61 NW9G22    30.05R                  
PANAMA CITY    FAIR      56  43  61 NW21G30   30.02R                  
TYNDALL AFB    CLEAR     58  47  66 N17G26    30.02R                  
APALACHICOLA   CLEAR     60  47  61 N16       29.99R                  

STATION/POSITION SKY/WX   TEMP    WIND        PRES    WAVE   SWELL
                          AIR SEA DIR/SP/G            HT/PER HT/PER
                          (F)     (DEG/KT/KT) (MB)    (FT/S) (FT/S)
30.1N   87.6W              60 76  330/ 27/ 33 1018.4R   5/ 4
29.2N   88.2W              64 78  360/ 29/ 37 1018.8F   8/ 7
28.8N   86.0W              69 78  350/ 25/ 31 1014.9R   8/ 6
PANAMA CITY BEAC           57 73  350/ 16/ 22 1016.8R
CAPE SAN BLAS    NOT AVBL
TOWER C                    62     340/ 28/ 30 1014.2R
28.5N   84.5W              71 79  300/ 14/ 19 1013.7R   5/ 6

**********************************************************************
  Louisiana
100 AM CDT SAT NOV 01 2014

LAZ040-048-061>063-065-066-069-010700-
SOUTHEAST LOUISIANA
  
CITY           SKY/WX    TMP DP  RH WIND       PRES   REMARKS
N.O. AUDUBON     N/A     58  38  47 MISG        N/A                   
6HR MIN TEMP:  58; 6HR MAX TEMP:  69;                                

N.O. INTL ARPT PTCLDY    57  38  48 N22G33    30.20R                  
6HR MIN TEMP:  57; 6HR MAX TEMP:  69;                                

N.O. LAKEFRONT CLEAR     59  41  51 N32G40    30.20F                  
6HR MIN TEMP:  59; 6HR MAX TEMP:  70;                                

N.O. DOWNTOWN* FAIR      57  36  44 N15G23    30.20S                  
6HR MIN TEMP:  57; 6HR MAX TEMP:  70;                                

SLIDELL        CLEAR     52  39  61 N9        30.19F                  
6HR MIN TEMP:  52; 6HR MAX TEMP:  66;                                

BATON ROUGE    CLEAR     53  39  59 N8        30.24R                  
6HR MIN TEMP:  53; 6HR MAX TEMP:  64;                                

BOOTHVILLE     CLEAR     59  44  57 N18G31    30.15S                  
6HR MIN TEMP:  59; 6HR MAX TEMP:  70;                                

BELLE CHASSE   CLEAR     57  38  48 N12G24    30.18R                  
6HR MIN TEMP:  57; 6HR MAX TEMP:  69;                                

BOGALUSA*        N/A     53  37  54 N12G17    30.23S                  
6HR MIN TEMP:  52; 6HR MAX TEMP:  65;                                

NEW ROADS*     FAIR      51  44  76 N13       30.26R                  
6HR MIN TEMP:  50; 6HR MAX TEMP:  63;                                

GONZALES*      FAIR      55  44  66 N6        30.22R                  
6HR MIN TEMP:  55; 6HR MAX TEMP:  65;                                

HAMMOND*       CLEAR     52  39  62 N10       30.23S                  
HOUMA*         CLEAR     55  44  65 N10G22    30.19S                  
6HR MIN TEMP:  55; 6HR MAX TEMP:  65;                                

PORT FOURCHON* NOT AVBL                                               

**********************************************************************
  Mississippi
100 AM CDT SAT NOV 01 2014

MSZ080>082-010700-
COASTAL MISSISSIPPI
  
CITY           SKY/WX    TMP DP  RH WIND       PRES   REMARKS
BILOXI         CLEAR     54  37  52 N13       30.17S                  
6HR MIN TEMP:  54; 6HR MAX TEMP:  67;                                

PASCAGOULA     CLEAR     53  33  46 N17G25    30.16R                  
6HR MIN TEMP:  53; 6HR MAX TEMP:  65;                                

GULFPORT       CLEAR     54  35  48 N14
About Us | Coastal Marine Forecast | Offshore Marine Forecast | Marine Weather Discussion
Gulf Coast Tides | Exxon Mobil Platform 112B | Hourly Weather Observations | Weather Radar
Severe Weather Potential | Sea Surface Temperatures | Solar/Lunar Data | Hurricane Advisories | Home
     
USA Logo Dr. Bill's Marine Weather
Last date changed: February 4, 2005 12:04 PM
www.gulfmarineweather.com/hourlyweatherobservations.shtml
Contact Us